Time,TemperatureF,DewpointF,PressureIn,WindDirection,WindDirectionDegrees,WindSpeedMPH,WindSpeedGustMPH,Humidity,HourlyPrecipIn,Conditions,Clouds,dailyrainin,SolarRadiationWatts/m^2,SoftwareType,DateUTC
2013-05-27 00:00:00,58.5,54.9,30.24,SE,140,0.0,0.0,88,0.00,,,0.00,0.0,meteohub,2013-05-27 04:00:00,
2013-05-27 00:01:00,58.5,54.9,30.24,SE,140,0.0,0.0,88,0.00,,,0.00,0.0,meteohub,2013-05-27 04:01:00,
2013-05-27 00:02:00,58.5,55.2,30.24,SE,140,1.0,0.0,89,0.00,,,0.00,0.0,meteohub,2013-05-27 04:02:00,
2013-05-27 00:03:00,58.5,55.2,30.23,SE,140,1.0,0.0,89,0.00,,,0.00,0.0,meteohub,2013-05-27 04:03:00,
2013-05-27 00:04:00,58.5,55.2,30.23,SE,140,1.0,0.0,89,0.00,,,0.00,0.0,meteohub,2013-05-27 04:04:00,
2013-05-27 00:05:00,58.3,55.0,30.23,SE,140,0.0,2.0,89,0.00,,,0.00,0.0,meteohub,2013-05-27 04:05:00,
2013-05-27 00:10:00,58.3,54.7,30.23,SE,140,0.0,3.0,88,0.00,,,0.00,0.0,meteohub,2013-05-27 04:10:00,
2013-05-27 00:16:00,58.3,54.7,30.23,SE,140,0.0,3.0,88,0.00,,,0.00,0.0,meteohub,2013-05-27 04:16:00,
2013-05-27 00:21:00,58.5,55.2,30.22,SE,140,0.0,2.0,89,0.00,,,0.00,0.0,meteohub,2013-05-27 04:21:00,
2013-05-27 00:26:00,58.6,55.0,30.22,SE,140,1.0,2.0,88,0.00,,,0.00,0.0,meteohub,2013-05-27 04:26:00,
2013-05-27 00:31:00,58.8,54.7,30.22,SE,140,0.0,2.0,86,0.00,,,0.00,0.0,meteohub,2013-05-27 04:31:00,
2013-05-27 00:37:00,59.2,54.7,30.22,SE,140,1.0,3.0,85,0.00,,,0.00,0.0,meteohub,2013-05-27 04:37:00,
2013-05-27 00:41:00,59.4,55.2,30.22,SE,140,1.0,3.0,86,0.00,,,0.00,0.0,meteohub,2013-05-27 04:41:00,
2013-05-27 00:42:00,59.4,55.2,30.22,SE,140,0.0,3.0,86,0.00,,,0.00,0.0,meteohub,2013-05-27 04:42:00,
2013-05-27 00:47:00,59.5,55.0,30.22,ENE,75,2.0,3.0,85,0.00,,,0.00,0.0,meteohub,2013-05-27 04:47:00,
2013-05-27 00:52:00,59.7,54.5,30.21,ESE,119,2.0,4.0,83,0.00,,,0.00,0.0,meteohub,2013-05-27 04:52:00,
2013-05-27 00:57:00,59.9,54.3,30.20,South,170,0.0,4.0,82,0.00,,,0.00,0.0,meteohub,2013-05-27 04:57:00,
2013-05-27 01:02:00,60.1,54.3,30.21,East,94,1.0,4.0,81,0.00,,,0.00,0.0,meteohub,2013-05-27 05:02:00,
2013-05-27 01:07:00,60.4,54.3,30.21,ESE,114,1.0,4.0,80,0.00,,,0.00,0.0,meteohub,2013-05-27 05:07:00,
2013-05-27 01:12:00,60.4,54.3,30.21,SE,130,0.0,4.0,80,0.00,,,0.00,0.0,meteohub,2013-05-27 05:12:00,
2013-05-27 01:17:00,60.6,54.5,30.21,SE,130,0.0,3.0,80,0.00,,,0.00,0.0,meteohub,2013-05-27 05:17:00,
2013-05-27 01:22:00,60.6,54.7,30.20,SE,130,0.0,3.0,81,0.00,,,0.00,0.0,meteohub,2013-05-27 05:22:00,
2013-05-27 01:27:00,60.4,54.9,30.20,SE,142,2.0,2.0,82,0.00,,,0.00,0.0,meteohub,2013-05-27 05:27:00,
2013-05-27 01:32:00,60.4,54.3,30.20,ESE,123,4.0,4.0,80,0.00,,,0.00,0.0,meteohub,2013-05-27 05:32:00,
2013-05-27 01:37:00,60.4,54.0,30.20,East,84,2.0,5.0,79,0.00,,,0.00,0.0,meteohub,2013-05-27 05:37:00,
2013-05-27 01:42:00,60.6,53.8,30.19,SE,136,1.0,6.0,78,0.00,,,0.00,0.0,meteohub,2013-05-27 05:42:00,
2013-05-27 01:47:00,60.8,53.6,30.19,ESE,121,0.0,6.0,77,0.00,,,0.00,0.0,meteohub,2013-05-27 05:47:00,
2013-05-27 01:52:00,60.8,53.2,30.19,ESE,102,0.0,5.0,76,0.00,,,0.00,0.0,meteohub,2013-05-27 05:52:00,
2013-05-27 01:58:00,61.0,53.8,30.19,ESE,102,0.0,5.0,77,0.00,,,0.00,0.0,meteohub,2013-05-27 05:58:00,
2013-05-27 02:03:00,60.8,53.2,30.19,ESE,107,0.0,3.0,76,0.00,,,0.00,0.0,meteohub,2013-05-27 06:03:00,
2013-05-27 02:08:00,60.6,53.1,30.20,ESE,120,1.0,3.0,76,0.00,,,0.00,0.0,meteohub,2013-05-27 06:08:00,
2013-05-27 02:13:00,60.6,53.4,30.19,ESE,102,0.0,4.0,77,0.00,,,0.00,0.0,meteohub,2013-05-27 06:13:00,
2013-05-27 02:18:00,60.6,53.4,30.19,East,96,1.0,4.0,77,0.00,,,0.00,0.0,meteohub,2013-05-27 06:18:00,
2013-05-27 02:23:00,60.4,53.2,30.19,ESE,113,1.0,3.0,77,0.00,,,0.00,0.0,meteohub,2013-05-27 06:23:00,
2013-05-27 02:28:00,60.4,53.2,30.19,ESE,105,1.0,4.0,77,0.00,,,0.00,0.0,meteohub,2013-05-27 06:28:00,
2013-05-27 02:33:00,60.4,53.2,30.19,East,98,0.0,4.0,77,0.00,,,0.00,0.0,meteohub,2013-05-27 06:33:00,
2013-05-27 02:38:00,60.4,53.2,30.19,East,95,0.0,4.0,77,0.00,,,0.00,0.0,meteohub,2013-05-27 06:38:00,
2013-05-27 02:43:00,60.4,53.2,30.19,ESE,114,1.0,4.0,77,0.00,,,0.00,0.0,meteohub,2013-05-27 06:43:00,
2013-05-27 02:48:00,60.4,53.2,30.19,East,96,3.0,4.0,77,0.00,,,0.00,0.0,meteohub,2013-05-27 06:48:00,
2013-05-27 02:53:00,60.4,52.9,30.19,ESE,110,1.0,5.0,76,0.00,,,0.00,0.0,meteohub,2013-05-27 06:53:00,
2013-05-27 02:58:00,60.4,53.2,30.18,SE,130,1.0,6.0,77,0.00,,,0.00,0.0,meteohub,2013-05-27 06:58:00,
2013-05-27 03:04:00,60.4,53.2,30.18,ESE,104,3.0,6.0,77,0.00,,,0.00,0.0,meteohub,2013-05-27 07:04:00,
2013-05-27 03:09:00,60.4,53.2,30.18,ESE,116,2.0,5.0,77,0.00,,,0.00,0.0,meteohub,2013-05-27 07:09:00,
2013-05-27 03:14:00,60.3,53.1,30.19,SE,124,2.0,5.0,77,0.00,,,0.00,0.0,meteohub,2013-05-27 07:14:00,
2013-05-27 03:19:00,60.3,53.1,30.19,ENE,61,1.0,5.0,77,0.00,,,0.00,0.0,meteohub,2013-05-27 07:19:00,
2013-05-27 03:24:00,60.3,52.7,30.19,East,86,0.0,5.0,76,0.00,,,0.00,0.0,meteohub,2013-05-27 07:24:00,
2013-05-27 03:29:00,60.4,53.2,30.19,East,88,1.0,5.0,77,0.00,,,0.00,0.0,meteohub,2013-05-27 07:29:00,
2013-05-27 03:34:00,60.3,53.1,30.19,ESE,108,1.0,5.0,77,0.00,,,0.00,0.0,meteohub,2013-05-27 07:34:00,
2013-05-27 03:39:00,60.3,53.1,30.19,ESE,106,0.0,5.0,77,0.00,,,0.00,0.0,meteohub,2013-05-27 07:39:00,
2013-05-27 03:44:00,60.3,53.1,30.19,East,81,2.0,4.0,77,0.00,,,0.00,0.0,meteohub,2013-05-27 07:44:00,
2013-05-27 03:49:00,60.3,53.1,30.19,East,88,0.0,4.0,77,0.00,,,0.00,0.0,meteohub,2013-05-27 07:49:00,
2013-05-27 03:54:00,60.3,53.1,30.19,East,96,1.0,4.0,77,0.00,,,0.00,0.0,meteohub,2013-05-27 07:54:00,
2013-05-27 03:59:00,60.3,53.1,30.19,SE,125,1.0,4.0,77,0.00,,,0.00,0.0,meteohub,2013-05-27 07:59:00,
2013-05-27 04:04:00,60.1,52.9,30.19,East,99,1.0,7.0,77,0.00,,,0.00,0.0,meteohub,2013-05-27 08:04:00,
2013-05-27 04:09:00,60.1,52.9,30.18,SE,133,1.0,7.0,77,0.00,,,0.00,0.0,meteohub,2013-05-27 08:09:00,
2013-05-27 04:14:00,60.1,52.9,30.18,ENE,61,4.0,7.0,77,0.00,,,0.00,0.0,meteohub,2013-05-27 08:14:00,
2013-05-27 04:19:00,60.1,52.9,30.19,ESE,104,1.0,6.0,77,0.00,,,0.00,0.0,meteohub,2013-05-27 08:19:00,
2013-05-27 04:25:00,60.1,52.9,30.19,NE,45,0.0,6.0,77,0.00,,,0.00,0.0,meteohub,2013-05-27 08:25:00,
2013-05-27 04:30:00,60.1,52.9,30.19,NE,34,2.0,6.0,77,0.00,,,0.00,0.0,meteohub,2013-05-27 08:30:00,
2013-05-27 04:35:00,60.1,52.9,30.19,SE,128,2.0,6.0,77,0.00,,,0.00,0.0,meteohub,2013-05-27 08:35:00,
2013-05-27 04:40:00,60.1,52.9,30.19,SE,124,2.0,5.0,77,0.00,,,0.00,0.0,meteohub,2013-05-27 08:40:00,
2013-05-27 04:45:00,60.1,53.2,30.19,ESE,102,0.0,6.0,78,0.00,,,0.00,0.0,meteohub,2013-05-27 08:45:00,
2013-05-27 04:50:00,59.9,53.1,30.19,ENE,58,2.0,6.0,78,0.00,,,0.00,0.0,meteohub,2013-05-27 08:50:00,
2013-05-27 04:55:00,59.9,53.1,30.19,NE,50,1.0,6.0,78,0.00,,,0.00,0.0,meteohub,2013-05-27 08:55:00,
2013-05-27 05:00:00,59.9,53.1,30.19,ESE,105,0.0,5.0,78,0.00,,,0.00,0.0,meteohub,2013-05-27 09:00:00,
2013-05-27 05:05:00,59.7,52.9,30.19,ESE,111,1.0,5.0,78,0.00,,,0.00,0.0,meteohub,2013-05-27 09:05:00,
2013-05-27 05:10:00,59.7,52.5,30.18,ESE,118,1.0,6.0,77,0.00,,,0.00,0.0,meteohub,2013-05-27 09:10:00,
2013-05-27 05:15:00,59.7,52.5,30.18,SE,126,1.0,8.0,77,0.00,,,0.00,0.0,meteohub,2013-05-27 09:15:00,
2013-05-27 05:20:00,59.5,52.3,30.18,ENE,65,1.0,8.0,77,0.00,,,0.00,0.0,meteohub,2013-05-27 09:20:00,
2013-05-27 05:25:00,59.5,52.3,30.18,East,86,0.0,6.0,77,0.00,,,0.00,0.0,meteohub,2013-05-27 09:25:00,
2013-05-27 05:30:00,59.4,52.2,30.18,ESE,116,2.0,6.0,77,0.00,,,0.00,0.0,meteohub,2013-05-27 09:30:00,
2013-05-27 05:35:00,59.2,52.0,30.18,SE,138,2.0,6.0,77,0.00,,,0.00,0.0,meteohub,2013-05-27 09:35:00,
2013-05-27 05:40:00,59.0,51.8,30.18,East,79,0.0,6.0,77,0.00,,,0.00,0.0,meteohub,2013-05-27 09:40:00,
2013-05-27 05:46:00,58.6,51.4,30.19,SSE,153,1.0,6.0,77,0.00,,,0.00,0.0,meteohub,2013-05-27 09:46:00,
2013-05-27 05:51:00,58.5,51.3,30.19,ESE,104,2.0,5.0,77,0.00,,,0.00,0.0,meteohub,2013-05-27 09:51:00,
2013-05-27 05:56:00,58.5,51.6,30.19,ESE,102,2.0,5.0,78,0.00,,,0.00,0.0,meteohub,2013-05-27 09:56:00,
2013-05-27 06:01:00,58.3,51.4,30.19,SE,142,0.0,4.0,78,0.00,,,0.00,0.0,meteohub,2013-05-27 10:01:00,
2013-05-27 06:06:00,58.1,51.3,30.19,SE,131,1.0,5.0,78,0.00,,,0.00,0.0,meteohub,2013-05-27 10:06:00,
2013-05-27 06:11:00,57.9,51.1,30.19,ESE,102,3.0,5.0,78,0.00,,,0.00,0.0,meteohub,2013-05-27 10:11:00,
2013-05-27 06:16:00,57.7,51.3,30.19,SE,129,1.0,5.0,79,0.00,,,0.00,0.0,meteohub,2013-05-27 10:16:00,
2013-05-27 06:21:00,57.7,51.6,30.19,ENE,77,2.0,5.0,80,0.00,,,0.00,0.0,meteohub,2013-05-27 10:21:00,
2013-05-27 06:26:00,57.7,51.6,30.19,ESE,119,0.0,3.0,80,0.00,,,0.00,0.0,meteohub,2013-05-27 10:26:00,
2013-05-27 06:31:00,57.7,51.6,30.19,East,84,1.0,5.0,80,0.00,,,0.00,5.0,meteohub,2013-05-27 10:31:00,
2013-05-27 06:36:00,57.7,51.3,30.19,ESE,105,1.0,5.0,79,0.00,,,0.00,5.0,meteohub,2013-05-27 10:36:00,
2013-05-27 06:41:00,57.9,51.4,30.19,East,95,0.0,5.0,79,0.00,,,0.00,7.0,meteohub,2013-05-27 10:41:00,
2013-05-27 06:46:00,57.9,51.1,30.19,ESE,109,3.0,5.0,78,0.00,,,0.00,12.0,meteohub,2013-05-27 10:46:00,
2013-05-27 06:51:00,57.9,51.1,30.19,ESE,106,2.0,6.0,78,0.00,,,0.00,19.0,meteohub,2013-05-27 10:51:00,
2013-05-27 06:56:00,58.1,51.3,30.19,SE,135,2.0,6.0,78,0.00,,,0.00,32.0,meteohub,2013-05-27 10:56:00,
2013-05-27 07:01:00,58.1,51.3,30.19,ESE,111,1.0,6.0,78,0.00,,,0.00,40.0,meteohub,2013-05-27 11:01:00,
2013-05-27 07:07:00,57.9,51.1,30.19,East,80,1.0,5.0,78,0.00,,,0.00,51.0,meteohub,2013-05-27 11:07:00,
2013-05-27 07:12:00,58.1,51.3,30.19,SE,138,1.0,5.0,78,0.00,,,0.00,69.0,meteohub,2013-05-27 11:12:00,
2013-05-27 07:17:00,58.3,51.4,30.19,ESE,123,1.0,5.0,78,0.00,,,0.00,77.0,meteohub,2013-05-27 11:17:00,
2013-05-27 07:22:00,58.5,51.3,30.19,ESE,111,3.0,5.0,77,0.00,,,0.00,93.0,meteohub,2013-05-27 11:22:00,
2013-05-27 07:27:00,58.6,51.4,30.19,SE,137,0.0,5.0,77,0.00,,,0.00,95.0,meteohub,2013-05-27 11:27:00,
2013-05-27 07:32:00,58.8,51.6,30.20,ESE,104,3.0,5.0,77,0.00,,,0.00,83.0,meteohub,2013-05-27 11:32:00,
2013-05-27 07:37:00,59.2,51.6,30.20,East,84,1.0,5.0,76,0.00,,,0.00,90.0,meteohub,2013-05-27 11:37:00,
2013-05-27 07:42:00,59.4,51.8,30.19,SE,126,0.0,5.0,76,0.00,,,0.00,105.0,meteohub,2013-05-27 11:42:00,
2013-05-27 07:47:00,59.5,52.0,30.19,SSE,154,3.0,4.0,76,0.00,,,0.00,95.0,meteohub,2013-05-27 11:47:00,
2013-05-27 07:52:00,59.5,51.6,30.19,SSE,148,2.0,7.0,75,0.00,,,0.00,114.0,meteohub,2013-05-27 11:52:00,
2013-05-27 07:57:00,59.7,51.8,30.19,ENE,63,2.0,7.0,75,0.00,,,0.00,100.0,meteohub,2013-05-27 11:57:00,
2013-05-27 08:02:00,59.9,52.3,30.19,East,94,0.0,7.0,76,0.00,,,0.00,98.0,meteohub,2013-05-27 12:02:00,
2013-05-27 08:07:00,60.1,52.5,30.19,East,90,3.0,5.0,76,0.00,,,0.00,186.0,meteohub,2013-05-27 12:07:00,
2013-05-27 08:12:00,60.3,52.3,30.19,ESE,117,3.0,5.0,75,0.00,,,0.00,118.0,meteohub,2013-05-27 12:12:00,
2013-05-27 08:17:00,60.8,52.9,30.19,ESE,103,2.0,5.0,75,0.00,,,0.00,294.0,meteohub,2013-05-27 12:17:00,
2013-05-27 08:22:00,61.5,53.2,30.19,SE,140,2.0,6.0,74,0.00,,,0.00,130.0,meteohub,2013-05-27 12:22:00,
2013-05-27 08:27:00,62.4,52.9,30.18,ESE,117,5.0,6.0,71,0.00,,,0.00,308.0,meteohub,2013-05-27 12:27:00,
2013-05-27 08:32:00,63.1,53.2,30.18,SE,142,3.0,6.0,70,0.00,,,0.00,322.0,meteohub,2013-05-27 12:32:00,
2013-05-27 08:37:00,63.7,53.8,30.18,SE,129,3.0,7.0,70,0.00,,,0.00,339.0,meteohub,2013-05-27 12:37:00,
2013-05-27 08:42:00,64.2,53.8,30.18,ESE,120,3.0,7.0,69,0.00,,,0.00,357.0,meteohub,2013-05-27 12:42:00,
2013-05-27 08:47:00,64.6,53.4,30.17,SE,142,2.0,8.0,67,0.00,,,0.00,367.0,meteohub,2013-05-27 12:47:00,
2013-05-27 08:52:00,64.9,54.5,30.17,SE,129,8.0,8.0,69,0.00,,,0.00,388.0,meteohub,2013-05-27 12:52:00,
2013-05-27 08:57:00,65.5,54.3,30.17,ESE,117,4.0,8.0,67,0.00,,,0.00,406.0,meteohub,2013-05-27 12:57:00,
2013-05-27 09:02:00,65.7,54.3,30.17,ESE,114,1.0,8.0,67,0.00,,,0.00,420.0,meteohub,2013-05-27 13:02:00,
2013-05-27 09:07:00,65.8,54.1,30.17,South,174,6.0,9.0,66,0.00,,,0.00,436.0,meteohub,2013-05-27 13:07:00,
2013-05-27 09:12:00,66.2,55.4,30.16,SE,136,0.0,9.0,68,0.00,,,0.00,455.0,meteohub,2013-05-27 13:12:00,
2013-05-27 09:17:00,66.7,54.7,30.16,SE,136,3.0,9.0,65,0.00,,,0.00,466.0,meteohub,2013-05-27 13:17:00,
2013-05-27 09:22:00,66.9,54.9,30.16,SSE,150,5.0,9.0,65,0.00,,,0.00,487.0,meteohub,2013-05-27 13:22:00,
2013-05-27 09:27:00,67.3,55.6,30.16,SSE,148,2.0,9.0,66,0.00,,,0.00,503.0,meteohub,2013-05-27 13:27:00,
2013-05-27 09:32:00,67.6,55.9,30.16,SSE,165,1.0,9.0,66,0.00,,,0.00,517.0,meteohub,2013-05-27 13:32:00,
2013-05-27 09:37:00,68.2,57.2,30.16,ESE,121,7.0,8.0,68,0.00,,,0.00,531.0,meteohub,2013-05-27 13:37:00,
2013-05-27 09:42:00,68.7,56.5,30.15,SE,146,2.0,8.0,65,0.00,,,0.00,550.0,meteohub,2013-05-27 13:42:00,
2013-05-27 09:47:00,69.4,57.2,30.15,East,95,1.0,8.0,65,0.00,,,0.00,566.0,meteohub,2013-05-27 13:47:00,
2013-05-27 09:52:00,70.2,57.4,30.15,SE,142,1.0,8.0,64,0.00,,,0.00,578.0,meteohub,2013-05-27 13:52:00,
2013-05-27 09:57:00,70.9,58.5,30.15,SE,125,7.0,7.0,65,0.00,,,0.00,592.0,meteohub,2013-05-27 13:57:00,
2013-05-27 10:02:00,71.2,57.6,30.15,SSE,152,6.0,7.0,62,0.00,,,0.00,608.0,meteohub,2013-05-27 14:02:00,
2013-05-27 10:07:00,71.6,57.4,30.15,South,179,2.0,7.0,61,0.00,,,0.00,621.0,meteohub,2013-05-27 14:07:00,
2013-05-27 10:12:00,72.1,57.6,30.14,SE,138,4.0,7.0,60,0.00,,,0.00,629.0,meteohub,2013-05-27 14:12:00,
2013-05-27 10:17:00,72.7,59.7,30.14,SE,126,1.0,7.0,64,0.00,,,0.00,642.0,meteohub,2013-05-27 14:17:00,
2013-05-27 10:22:00,72.9,59.0,30.14,South,175,4.0,7.0,62,0.00,,,0.00,659.0,meteohub,2013-05-27 14:22:00,
2013-05-27 10:27:00,73.2,59.4,30.14,SSE,163,3.0,7.0,62,0.00,,,0.00,673.0,meteohub,2013-05-27 14:27:00,
2013-05-27 10:32:00,73.6,57.9,30.14,SSE,166,2.0,7.0,58,0.00,,,0.00,687.0,meteohub,2013-05-27 14:32:00,
2013-05-27 10:37:00,73.9,59.7,30.14,SSE,157,5.0,7.0,61,0.00,,,0.00,701.0,meteohub,2013-05-27 14:37:00,
2013-05-27 10:42:00,74.3,58.6,30.14,SSE,154,2.0,7.0,58,0.00,,,0.00,712.0,meteohub,2013-05-27 14:42:00,
2013-05-27 10:47:00,74.8,60.4,30.13,South,176,1.0,7.0,61,0.00,,,0.00,728.0,meteohub,2013-05-27 14:47:00,
2013-05-27 10:52:00,75.2,59.9,30.13,SE,132,0.0,7.0,59,0.00,,,0.00,742.0,meteohub,2013-05-27 14:52:00,
2013-05-27 10:57:00,75.6,60.6,30.12,SSE,152,5.0,6.0,60,0.00,,,0.00,754.0,meteohub,2013-05-27 14:57:00,
2013-05-27 11:02:00,75.7,59.4,30.12,SW,215,1.0,6.0,57,0.00,,,0.00,761.0,meteohub,2013-05-27 15:02:00,
2013-05-27 11:07:00,75.6,59.2,30.12,SW,215,3.0,7.0,57,0.00,,,0.00,775.0,meteohub,2013-05-27 15:07:00,
2013-05-27 11:12:00,75.7,60.8,30.12,West,264,1.0,7.0,60,0.00,,,0.00,786.0,meteohub,2013-05-27 15:12:00,
2013-05-27 11:17:00,75.9,59.5,30.12,SSW,205,2.0,7.0,57,0.00,,,0.00,800.0,meteohub,2013-05-27 15:17:00,
2013-05-27 11:22:00,76.5,60.1,30.12,SE,144,5.0,5.0,57,0.00,,,0.00,810.0,meteohub,2013-05-27 15:22:00,
2013-05-27 11:27:00,76.8,60.4,30.11,WSW,254,1.0,7.0,57,0.00,,,0.00,819.0,meteohub,2013-05-27 15:27:00,
2013-05-27 11:33:00,77.2,59.7,30.12,South,176,5.0,7.0,55,0.00,,,0.00,831.0,meteohub,2013-05-27 15:33:00,
2013-05-27 11:38:00,77.7,62.2,30.12,South,184,2.0,7.0,59,0.00,,,0.00,838.0,meteohub,2013-05-27 15:38:00,
2013-05-27 11:43:00,78.3,61.7,30.11,SSE,150,1.0,6.0,57,0.00,,,0.00,851.0,meteohub,2013-05-27 15:43:00,
2013-05-27 11:48:00,78.3,60.3,30.11,SW,235,1.0,6.0,54,0.00,,,0.00,860.0,meteohub,2013-05-27 15:48:00,
2013-05-27 11:53:00,78.1,61.2,30.11,South,169,2.0,8.0,56,0.00,,,0.00,868.0,meteohub,2013-05-27 15:53:00,
2013-05-27 11:58:00,78.3,62.8,30.11,SSE,163,3.0,8.0,59,0.00,,,0.00,874.0,meteohub,2013-05-27 15:58:00,
2013-05-27 12:03:00,78.4,60.4,30.12,SW,215,1.0,8.0,54,0.00,,,0.00,886.0,meteohub,2013-05-27 16:03:00,
2013-05-27 12:08:00,78.4,59.9,30.12,WNW,283,5.0,7.0,53,0.00,,,0.00,896.0,meteohub,2013-05-27 16:08:00,
2013-05-27 12:13:00,78.3,63.7,30.12,WSW,250,2.0,9.0,61,0.00,,,0.00,898.0,meteohub,2013-05-27 16:13:00,
2013-05-27 12:18:00,78.3,61.3,30.11,SW,234,1.0,9.0,56,0.00,,,0.00,905.0,meteohub,2013-05-27 16:18:00,
2013-05-27 12:23:00,78.6,62.6,30.11,SSW,210,8.0,9.0,58,0.00,,,0.00,911.0,meteohub,2013-05-27 16:23:00,
2013-05-27 12:29:00,78.8,61.3,30.11,WSW,257,2.0,10.0,55,0.00,,,0.00,918.0,meteohub,2013-05-27 16:29:00,
2013-05-27 12:34:00,79.2,62.1,30.11,WSW,238,6.0,10.0,56,0.00,,,0.00,925.0,meteohub,2013-05-27 16:34:00,
2013-05-27 12:39:00,79.3,63.7,30.11,SSW,193,2.0,10.0,59,0.00,,,0.00,928.0,meteohub,2013-05-27 16:39:00,
2013-05-27 12:44:00,78.6,61.2,30.11,West,266,1.0,9.0,55,0.00,,,0.00,926.0,meteohub,2013-05-27 16:44:00,
2013-05-27 12:49:00,79.2,62.1,30.10,SSW,210,3.0,12.0,56,0.00,,,0.00,935.0,meteohub,2013-05-27 16:49:00,
2013-05-27 12:54:00,79.2,62.6,30.10,SSW,196,4.0,12.0,57,0.00,,,0.00,940.0,meteohub,2013-05-27 16:54:00,
2013-05-27 12:59:00,79.3,61.7,30.10,SW,221,7.0,12.0,55,0.00,,,0.00,942.0,meteohub,2013-05-27 16:59:00,
2013-05-27 13:04:00,79.5,61.9,30.09,WSW,237,3.0,10.0,55,0.00,,,0.00,942.0,meteohub,2013-05-27 17:04:00,
2013-05-27 13:09:00,79.7,61.5,30.09,SSE,156,6.0,14.0,54,0.00,,,0.00,949.0,meteohub,2013-05-27 17:09:00,
2013-05-27 13:14:00,79.3,59.7,30.09,SSW,205,6.0,14.0,51,0.00,,,0.00,954.0,meteohub,2013-05-27 17:14:00,
2013-05-27 13:20:00,80.1,62.4,30.08,SE,146,2.0,14.0,55,0.00,,,0.00,998.0,meteohub,2013-05-27 17:20:00,
2013-05-27 13:25:00,79.9,60.6,30.08,West,261,3.0,10.0,52,0.00,,,0.00,998.0,meteohub,2013-05-27 17:25:00,
2013-05-27 13:30:00,80.2,63.1,30.08,SSE,151,3.0,10.0,56,0.00,,,0.00,991.0,meteohub,2013-05-27 17:30:00,
2013-05-27 13:35:00,80.8,60.4,30.08,WSW,240,10.0,10.0,50,0.00,,,0.00,972.0,meteohub,2013-05-27 17:35:00,
2013-05-27 13:40:00,80.8,62.6,30.07,South,175,3.0,12.0,54,0.00,,,0.00,970.0,meteohub,2013-05-27 17:40:00,
2013-05-27 13:45:00,81.0,60.6,30.07,South,179,2.0,13.0,50,0.00,,,0.00,947.0,meteohub,2013-05-27 17:45:00,
2013-05-27 13:50:00,81.0,61.2,30.07,SSW,205,2.0,13.0,51,0.00,,,0.00,956.0,meteohub,2013-05-27 17:50:00,
2013-05-27 13:55:00,81.3,59.2,30.07,WSW,241,7.0,10.0,47,0.00,,,0.00,960.0,meteohub,2013-05-27 17:55:00,
2013-05-27 14:00:00,81.3,58.6,30.07,WNW,282,3.0,12.0,46,0.00,,,0.00,949.0,meteohub,2013-05-27 18:00:00,
2013-05-27 14:05:00,81.9,59.7,30.06,WSW,255,2.0,12.0,47,0.00,,,0.00,953.0,meteohub,2013-05-27 18:05:00,
2013-05-27 14:11:00,82.0,61.0,30.06,SW,230,9.0,14.0,49,0.00,,,0.00,951.0,meteohub,2013-05-27 18:11:00,
2013-05-27 14:16:00,81.9,59.7,30.07,WSW,258,4.0,14.0,47,0.00,,,0.00,946.0,meteohub,2013-05-27 18:16:00,
2013-05-27 14:21:00,81.7,55.0,30.06,South,181,4.0,14.0,40,0.00,,,0.00,935.0,meteohub,2013-05-27 18:21:00,
2013-05-27 14:26:00,81.9,57.7,30.07,SSW,205,7.0,13.0,44,0.00,,,0.00,939.0,meteohub,2013-05-27 18:26:00,
2013-05-27 14:31:00,81.5,56.1,30.06,West,274,8.0,13.0,42,0.00,,,0.00,932.0,meteohub,2013-05-27 18:31:00,
2013-05-27 14:36:00,81.7,56.3,30.06,WSW,257,5.0,13.0,42,0.00,,,0.00,926.0,meteohub,2013-05-27 18:36:00,
2013-05-27 14:41:00,81.7,58.3,30.06,South,185,7.0,13.0,45,0.00,,,0.00,926.0,meteohub,2013-05-27 18:41:00,
2013-05-27 14:46:00,82.0,57.9,30.06,WSW,244,2.0,13.0,44,0.00,,,0.00,914.0,meteohub,2013-05-27 18:46:00,
2013-05-27 14:51:00,82.2,56.1,30.06,WSW,246,4.0,13.0,41,0.00,,,0.00,912.0,meteohub,2013-05-27 18:51:00,
2013-05-27 14:56:00,82.2,56.8,30.06,WSW,243,6.0,12.0,42,0.00,,,0.00,911.0,meteohub,2013-05-27 18:56:00,
2013-05-27 15:01:00,82.6,58.5,30.05,SW,236,5.0,13.0,44,0.00,,,0.00,895.0,meteohub,2013-05-27 19:01:00,
2013-05-27 15:06:00,82.9,57.6,30.04,West,269,9.0,13.0,42,0.00,,,0.00,879.0,meteohub,2013-05-27 19:06:00,
2013-05-27 15:11:00,83.3,61.5,30.04,SE,138,3.0,14.0,48,0.00,,,0.00,875.0,meteohub,2013-05-27 19:11:00,
2013-05-27 15:16:00,83.1,57.6,30.04,WSW,240,8.0,14.0,42,0.00,,,0.00,870.0,meteohub,2013-05-27 19:16:00,
2013-05-27 15:22:00,82.8,59.2,30.03,WSW,257,1.0,12.0,45,0.00,,,0.00,851.0,meteohub,2013-05-27 19:22:00,
2013-05-27 15:27:00,82.9,56.1,30.03,SW,219,6.0,13.0,40,0.00,,,0.00,838.0,meteohub,2013-05-27 19:27:00,
2013-05-27 15:32:00,82.8,57.4,30.03,SSE,159,10.0,13.0,42,0.00,,,0.00,833.0,meteohub,2013-05-27 19:32:00,
2013-05-27 15:37:00,83.1,57.6,30.03,SSW,196,2.0,13.0,42,0.00,,,0.00,835.0,meteohub,2013-05-27 19:37:00,
2013-05-27 15:42:00,83.5,55.2,30.03,SSE,165,5.0,14.0,38,0.00,,,0.00,824.0,meteohub,2013-05-27 19:42:00,
2013-05-27 15:47:00,83.3,56.5,30.02,SSE,155,0.0,14.0,40,0.00,,,0.00,816.0,meteohub,2013-05-27 19:47:00,
2013-05-27 15:52:00,83.1,57.0,30.02,SE,146,6.0,14.0,41,0.00,,,0.00,814.0,meteohub,2013-05-27 19:52:00,
2013-05-27 15:57:00,83.5,56.7,30.02,South,188,4.0,18.0,40,0.00,,,0.00,789.0,meteohub,2013-05-27 19:57:00,
2013-05-27 16:02:00,83.5,52.9,30.02,WSW,256,4.0,18.0,35,0.00,,,0.00,788.0,meteohub,2013-05-27 20:02:00,
2013-05-27 16:07:00,83.3,55.8,30.02,SW,232,4.0,18.0,39,0.00,,,0.00,768.0,meteohub,2013-05-27 20:07:00,
2013-05-27 16:13:00,83.3,57.7,30.02,South,180,8.0,16.0,42,0.00,,,0.00,742.0,meteohub,2013-05-27 20:13:00,
2013-05-27 16:18:00,83.8,57.6,30.02,WSW,248,8.0,16.0,41,0.00,,,0.00,735.0,meteohub,2013-05-27 20:18:00,
2013-05-27 16:23:00,83.7,54.0,30.01,South,179,9.0,16.0,36,0.00,,,0.00,715.0,meteohub,2013-05-27 20:23:00,
2013-05-27 16:28:00,83.5,55.2,30.01,WSW,253,7.0,17.0,38,0.00,,,0.00,712.0,meteohub,2013-05-27 20:28:00,
2013-05-27 16:33:00,83.8,55.6,30.01,SW,227,6.0,17.0,38,0.00,,,0.00,696.0,meteohub,2013-05-27 20:33:00,
2013-05-27 16:38:00,83.3,55.0,30.01,SE,140,3.0,17.0,38,0.00,,,0.00,684.0,meteohub,2013-05-27 20:38:00,
2013-05-27 16:43:00,83.1,54.9,30.01,West,260,4.0,17.0,38,0.00,,,0.00,671.0,meteohub,2013-05-27 20:43:00,
2013-05-27 16:48:00,83.1,52.7,30.01,SSE,161,13.0,17.0,35,0.00,,,0.00,661.0,meteohub,2013-05-27 20:48:00,
2013-05-27 16:53:00,83.5,52.2,30.01,South,175,6.0,19.0,34,0.00,,,0.00,645.0,meteohub,2013-05-27 20:53:00,
2013-05-27 16:58:00,83.7,53.1,30.01,WSW,255,3.0,19.0,35,0.00,,,0.00,636.0,meteohub,2013-05-27 20:58:00,
2013-05-27 17:04:00,83.7,56.1,30.01,SW,230,7.0,19.0,39,0.00,,,0.00,621.0,meteohub,2013-05-27 21:04:00,
2013-05-27 17:09:00,83.5,53.8,30.01,South,190,7.0,17.0,36,0.00,,,0.00,612.0,meteohub,2013-05-27 21:09:00,
2013-05-27 17:14:00,83.5,54.5,30.01,SW,234,4.0,17.0,37,0.00,,,0.00,591.0,meteohub,2013-05-27 21:14:00,
2013-05-27 17:19:00,83.1,53.4,30.01,South,171,6.0,17.0,36,0.00,,,0.00,575.0,meteohub,2013-05-27 21:19:00,
2013-05-27 17:24:00,83.1,51.8,30.01,SSW,205,8.0,20.0,34,0.00,,,0.00,568.0,meteohub,2013-05-27 21:24:00,
2013-05-27 17:29:00,83.1,52.7,30.01,South,188,8.0,20.0,35,0.00,,,0.00,548.0,meteohub,2013-05-27 21:29:00,
2013-05-27 17:34:00,83.5,54.5,30.01,SW,232,3.0,17.0,37,0.00,,,0.00,522.0,meteohub,2013-05-27 21:34:00,
2013-05-27 17:39:00,83.5,53.8,30.01,SW,228,6.0,14.0,36,0.00,,,0.00,506.0,meteohub,2013-05-27 21:39:00,
2013-05-27 17:44:00,83.1,54.9,30.01,South,175,8.0,19.0,38,0.00,,,0.00,497.0,meteohub,2013-05-27 21:44:00,
2013-05-27 17:49:00,83.3,54.3,30.00,SW,222,5.0,19.0,37,0.00,,,0.00,480.0,meteohub,2013-05-27 21:49:00,
2013-05-27 17:54:00,83.1,55.6,30.00,SSE,157,5.0,19.0,39,0.00,,,0.00,466.0,meteohub,2013-05-27 21:54:00,
2013-05-27 17:59:00,82.8,56.7,30.00,SSW,200,2.0,13.0,41,0.00,,,0.00,461.0,meteohub,2013-05-27 21:59:00,
2013-05-27 18:04:00,82.9,56.1,30.00,SW,223,9.0,14.0,40,0.00,,,0.00,438.0,meteohub,2013-05-27 22:04:00,
2013-05-27 18:10:00,82.8,56.7,29.99,SW,227,4.0,14.0,41,0.00,,,0.00,424.0,meteohub,2013-05-27 22:10:00,
2013-05-27 18:15:00,82.8,55.9,29.99,South,186,6.0,14.0,40,0.00,,,0.00,408.0,meteohub,2013-05-27 22:15:00,
2013-05-27 18:20:00,82.8,56.7,29.99,SW,225,2.0,14.0,41,0.00,,,0.00,394.0,meteohub,2013-05-27 22:20:00,
2013-05-27 18:25:00,82.8,57.4,29.99,SW,226,3.0,14.0,42,0.00,,,0.00,369.0,meteohub,2013-05-27 22:25:00,
2013-05-27 18:30:00,82.2,56.1,29.99,SSE,163,18.0,18.0,41,0.00,,,0.00,355.0,meteohub,2013-05-27 22:30:00,
2013-05-27 18:35:00,82.0,56.7,29.99,SSW,195,5.0,18.0,42,0.00,,,0.00,336.0,meteohub,2013-05-27 22:35:00,
2013-05-27 18:40:00,82.2,56.8,29.99,South,175,10.0,18.0,42,0.00,,,0.00,315.0,meteohub,2013-05-27 22:40:00,
2013-05-27 18:45:00,82.2,57.6,29.99,West,259,3.0,13.0,43,0.00,,,0.00,301.0,meteohub,2013-05-27 22:45:00,
2013-05-27 18:50:00,82.0,55.9,29.99,SSW,195,2.0,12.0,41,0.00,,,0.00,285.0,meteohub,2013-05-27 22:50:00,
2013-05-27 18:55:00,81.9,57.2,29.99,South,178,4.0,13.0,43,0.00,,,0.00,253.0,meteohub,2013-05-27 22:55:00,
2013-05-27 19:01:00,81.9,57.2,29.99,South,178,7.0,13.0,43,0.00,,,0.00,250.0,meteohub,2013-05-27 23:01:00,
2013-05-27 19:06:00,81.7,57.6,29.98,SW,233,2.0,12.0,44,0.00,,,0.00,200.0,meteohub,2013-05-27 23:06:00,
2013-05-27 19:11:00,81.5,58.6,29.99,West,261,2.0,9.0,46,0.00,,,0.00,197.0,meteohub,2013-05-27 23:11:00,
2013-05-27 19:16:00,81.3,57.9,29.99,WSW,239,9.0,9.0,45,0.00,,,0.00,190.0,meteohub,2013-05-27 23:16:00,
2013-05-27 19:21:00,81.0,58.3,29.99,WSW,248,4.0,12.0,46,0.00,,,0.00,181.0,meteohub,2013-05-27 23:21:00,
2013-05-27 19:26:00,80.6,57.4,29.99,SW,221,5.0,12.0,45,0.00,,,0.00,167.0,meteohub,2013-05-27 23:26:00,
2013-05-27 19:31:00,80.4,57.7,29.99,SW,225,6.0,12.0,46,0.00,,,0.00,160.0,meteohub,2013-05-27 23:31:00,
2013-05-27 19:36:00,80.2,58.1,29.99,SSE,152,4.0,12.0,47,0.00,,,0.00,142.0,meteohub,2013-05-27 23:36:00,
2013-05-27 19:41:00,80.1,58.1,29.99,SSW,195,2.0,9.0,47,0.00,,,0.00,120.0,meteohub,2013-05-27 23:41:00,
2013-05-27 19:46:00,80.1,58.1,29.99,SSW,205,5.0,9.0,47,0.00,,,0.00,95.0,meteohub,2013-05-27 23:46:00,
2013-05-27 19:51:00,79.7,58.3,29.99,WSW,238,0.0,8.0,48,0.00,,,0.00,56.0,meteohub,2013-05-27 23:51:00,
2013-05-27 19:56:00,79.3,58.5,29.99,South,183,1.0,8.0,49,0.00,,,0.00,49.0,meteohub,2013-05-27 23:56:00,
2013-05-27 20:01:00,79.2,58.3,29.99,SSW,210,0.0,8.0,49,0.00,,,0.00,46.0,meteohub,2013-05-28 00:01:00,
2013-05-27 20:06:00,78.8,58.6,29.99,South,183,1.0,7.0,50,0.00,,,0.00,42.0,meteohub,2013-05-28 00:06:00,
2013-05-27 20:12:00,78.4,58.8,29.99,SSE,164,3.0,7.0,51,0.00,,,0.00,39.0,meteohub,2013-05-28 00:12:00,
2013-05-27 20:17:00,78.1,59.0,29.99,WSW,241,1.0,7.0,52,0.00,,,0.00,32.0,meteohub,2013-05-28 00:17:00,
2013-05-27 20:22:00,77.7,58.1,29.99,SW,215,4.0,9.0,51,0.00,,,0.00,26.0,meteohub,2013-05-28 00:22:00,
2013-05-27 20:27:00,77.5,57.9,30.00,South,183,4.0,9.0,51,0.00,,,0.00,21.0,meteohub,2013-05-28 00:27:00,
2013-05-27 20:32:00,77.4,58.3,30.00,South,191,3.0,9.0,52,0.00,,,0.00,18.0,meteohub,2013-05-28 00:32:00,
2013-05-27 20:37:00,77.2,58.3,30.00,South,179,2.0,8.0,52,0.00,,,0.00,12.0,meteohub,2013-05-28 00:37:00,
2013-05-27 20:42:00,77.0,58.6,29.99,SSE,168,2.0,8.0,53,0.00,,,0.00,9.0,meteohub,2013-05-28 00:42:00,
2013-05-27 20:47:00,76.6,58.8,29.99,South,180,2.0,8.0,54,0.00,,,0.00,5.0,meteohub,2013-05-28 00:47:00,
2013-05-27 20:52:00,76.3,58.5,29.99,South,188,2.0,6.0,54,0.00,,,0.00,0.0,meteohub,2013-05-28 00:52:00,
2013-05-27 20:57:00,75.7,59.0,30.00,SSE,167,4.0,6.0,56,0.00,,,0.00,0.0,meteohub,2013-05-28 00:57:00,
2013-05-27 21:02:00,75.4,59.0,29.99,South,182,2.0,6.0,57,0.00,,,0.00,0.0,meteohub,2013-05-28 01:02:00,
2013-05-27 21:07:00,75.0,58.8,29.99,South,172,3.0,5.0,57,0.00,,,0.00,0.0,meteohub,2013-05-28 01:07:00,
2013-05-27 21:12:00,74.8,59.0,29.99,SSE,153,4.0,5.0,58,0.00,,,0.00,0.0,meteohub,2013-05-28 01:12:00,
2013-05-27 21:17:00,74.5,58.8,29.99,SSE,156,2.0,6.0,58,0.00,,,0.00,0.0,meteohub,2013-05-28 01:17:00,
2013-05-27 21:22:00,74.5,58.8,29.99,South,171,2.0,7.0,58,0.00,,,0.00,0.0,meteohub,2013-05-28 01:22:00,
2013-05-27 21:28:00,74.1,58.5,29.99,SSE,153,3.0,7.0,58,0.00,,,0.00,0.0,meteohub,2013-05-28 01:28:00,
2013-05-27 21:33:00,74.1,58.8,29.99,South,174,3.0,6.0,59,0.00,,,0.00,0.0,meteohub,2013-05-28 01:33:00,
2013-05-27 21:38:00,73.9,58.6,29.99,SSE,163,3.0,6.0,59,0.00,,,0.00,0.0,meteohub,2013-05-28 01:38:00,
2013-05-27 21:43:00,73.8,59.0,29.99,SSE,165,2.0,7.0,60,0.00,,,0.00,0.0,meteohub,2013-05-28 01:43:00,
2013-05-27 21:48:00,73.6,58.8,29.99,South,177,3.0,7.0,60,0.00,,,0.00,0.0,meteohub,2013-05-28 01:48:00,
2013-05-27 21:53:00,73.2,58.5,29.99,SSE,159,3.0,5.0,60,0.00,,,0.00,0.0,meteohub,2013-05-28 01:53:00,
2013-05-27 21:58:00,73.0,58.8,29.99,SE,146,2.0,7.0,61,0.00,,,0.00,0.0,meteohub,2013-05-28 01:58:00,
2013-05-27 22:03:00,72.9,58.6,30.00,SSE,154,3.0,7.0,61,0.00,,,0.00,0.0,meteohub,2013-05-28 02:03:00,
2013-05-27 22:08:00,72.9,58.6,30.00,South,175,6.0,6.0,61,0.00,,,0.00,0.0,meteohub,2013-05-28 02:08:00,
2013-05-27 22:13:00,72.9,58.1,30.00,SSE,156,4.0,6.0,60,0.00,,,0.00,0.0,meteohub,2013-05-28 02:13:00,
2013-05-27 22:18:00,72.9,58.1,30.00,South,177,1.0,6.0,60,0.00,,,0.00,0.0,meteohub,2013-05-28 02:18:00,
2013-05-27 22:23:00,72.7,58.5,30.00,SSE,156,4.0,6.0,61,0.00,,,0.00,0.0,meteohub,2013-05-28 02:23:00,
2013-05-27 22:28:00,72.5,57.7,30.00,South,175,1.0,6.0,60,0.00,,,0.00,0.0,meteohub,2013-05-28 02:28:00,
2013-05-27 22:33:00,72.3,58.1,30.01,SE,139,3.0,5.0,61,0.00,,,0.00,0.0,meteohub,2013-05-28 02:33:00,
2013-05-27 22:39:00,72.3,57.7,30.01,SSE,168,4.0,5.0,60,0.00,,,0.00,0.0,meteohub,2013-05-28 02:39:00,
2013-05-27 22:44:00,72.1,57.6,30.01,SSW,205,3.0,5.0,60,0.00,,,0.00,0.0,meteohub,2013-05-28 02:44:00,
2013-05-27 22:49:00,72.1,57.6,30.01,SSE,162,4.0,6.0,60,0.00,,,0.00,0.0,meteohub,2013-05-28 02:49:00,
2013-05-27 22:54:00,72.1,57.0,30.01,SSE,148,2.0,6.0,59,0.00,,,0.00,0.0,meteohub,2013-05-28 02:54:00,
2013-05-27 22:59:00,72.1,57.0,30.01,South,190,6.0,8.0,59,0.00,,,0.00,0.0,meteohub,2013-05-28 02:59:00,
2013-05-27 23:04:00,72.1,57.0,30.01,SSE,157,4.0,8.0,59,0.00,,,0.00,0.0,meteohub,2013-05-28 03:04:00,
2013-05-27 23:09:00,72.3,57.2,30.02,SSE,150,3.0,8.0,59,0.00,,,0.00,0.0,meteohub,2013-05-28 03:09:00,
2013-05-27 23:14:00,72.7,57.6,30.02,South,174,3.0,8.0,59,0.00,,,0.00,0.0,meteohub,2013-05-28 03:14:00,
2013-05-27 23:19:00,72.9,57.7,30.02,SSW,194,7.0,7.0,59,0.00,,,0.00,0.0,meteohub,2013-05-28 03:19:00,
2013-05-27 23:24:00,73.0,57.4,30.01,South,172,2.0,9.0,58,0.00,,,0.00,0.0,meteohub,2013-05-28 03:24:00,
2013-05-27 23:29:00,73.0,57.4,30.02,SSE,163,4.0,9.0,58,0.00,,,0.00,0.0,meteohub,2013-05-28 03:29:00,
2013-05-27 23:34:00,73.2,57.6,30.01,South,179,2.0,9.0,58,0.00,,,0.00,0.0,meteohub,2013-05-28 03:34:00,
2013-05-27 23:40:00,73.2,57.6,30.01,South,180,3.0,7.0,58,0.00,,,0.00,0.0,meteohub,2013-05-28 03:40:00,
2013-05-27 23:45:00,73.2,57.6,30.01,SE,139,4.0,11.0,58,0.00,,,0.00,0.0,meteohub,2013-05-28 03:45:00,
2013-05-27 23:50:00,73.2,57.6,30.02,SSE,168,2.0,11.0,58,0.00,,,0.00,0.0,meteohub,2013-05-28 03:50:00,
2013-05-27 23:55:00,73.2,58.1,30.02,SSE,148,3.0,11.0,59,0.00,,,0.00,0.0,meteohub,2013-05-28 03:55:00,